CZ-4C DEB, 45483

Orbit data source: Space-Track

CZ-4C DEB, 45483 is space debris in LEO originally from a launch on Tue, 10 Apr 2018 UTC launched from the Jiuquan Satellite Launch Center, China (JSC). Debris objects in space refer to the collection of defunct objects orbiting the Earth. Examples of debris include non-operational satellites, rocket bodies, and fragments generated from explosions, collisions, or faulty payload assembly.

Loading next visibility...
CZ-4C DEB details
Identifier
45483, 2018-034L
Orbit
LEO
Last TLE update2 months ago
Origin
Flag of CNCNSA (CN / PRC)
ManufacturerUnknown
MissionSpacecraft
Bus & MotorUnknown
MassUnknown
Launch date (UTC)
2018-04-10 (7 years ago)
Launch vehicleUnknown
Launch site
Jiuquan Satellite Launch Center, China (JSC)
Object type
Payload
Rocket body
Debris
Shape & HBRUnknown
Radar Cross SectionSmall (<0.1 m²)

Expand to show TLE details & history

TLE from 2 months ago
0 CZ-4C DEB
1 45483U 18034L   24297.47492814  .00000135  00000-0  33558-3 0  9999
2 45483  63.4002 213.3232 0216933   5.6865 354.6548 13.44181652283622
Epoch: 2024-10-23T11:23Z
Definitive object data (Epoch: 2024-10-23T11:23:53.791Z)
Latitude-0.00007°
Longitude9.97667°
Altitude934.139 km
Speed7.465 km/s
True Right ascension14h 13m 17s
True Declination0° 00' 00"
Sunlit
Object was in daylight at TLE epoch
Visualization TLE readout
Latitude-32.52425°
Longitude43.91188°
Altitude1,242.882 km
Speed7.166 km/s
Apparent Right ascension19h 30m 21s
Apparent Declination-71° 14' 55"
Sunlit
Object is in daylight
Visualization observer readout
Local Sidereal Time14:54:18
Azimuth159.439° S
Elevation-31.285°
Doppler factor1
Orbital elements
Apogee altitude1,254.636 km
Perigee altitude930.508 km
Semi-major axis7,470.709 km
Eccentricity0.0216933
Inclination63.4002°
RAAN213.3232°
Arg. of periapsis5.6865°
True anomaly354.41681°
Mean anomaly354.6548°
Eccentric anomaly354.53646°
Mean motion3.36125 °/min
BSTAR0.00033558
Orbital period107.1 mins
Loading maneuver chart data...
Loading historical data...
Loading historical data...
Loading historical data...
Loading historical data...
Loading historical data...
Loading historical data...
Loading historical data...

CZ-4C DEB Visibility forecast

Observer location: undefined°, undefined

Span
Click to sort rows by Start time (UTC) header in descending order
Start Az.
Max El. time (UTC)
Max El. Az.
Max El.
End time (UTC)
End Az.
11 mins2024-12-27 04:51:17.584Z195.476° SSW2024-12-27 04:57:17.584Z99.017° ESE40.331°2024-12-27 05:02:17.584Z42.361° NE
9 mins2024-12-27 06:44:17.584Z272.706° WNW2024-12-27 06:48:17.584Z326.067° NNW25.436°2024-12-27 06:53:17.584Z17.041° NNE
10 mins2024-12-27 12:24:17.584Z351.475° N2024-12-27 12:28:17.584Z34.972° NE26.48°2024-12-27 12:34:17.584Z96.139° ESE
13 mins2024-12-27 14:14:17.584Z319.991° NNW2024-12-27 14:20:17.584Z222.914° SW43.255°2024-12-27 14:27:17.584Z158.537° S
|